TimePDT,TemperatureF,Dew PointF,Humidity,Sea Level PressureIn,VisibilityMPH,Wind Direction,Wind SpeedMPH,Gust SpeedMPH,PrecipitationIn,Events,Conditions,WindDirDegrees,DateUTC
12:15 AM,59.0,57.2,94,29.87,10.0,WSW,4.6,-,N/A,,Clear,240,2013-08-18 07:15:00
12:35 AM,59.0,57.2,94,29.87,10.0,SW,4.6,-,N/A,,Clear,220,2013-08-18 07:35:00
12:55 AM,59.0,57.2,94,29.88,10.0,SSW,3.5,-,N/A,,Clear,200,2013-08-18 07:55:00
1:15 AM,59.0,57.2,94,29.87,10.0,SSW,3.5,-,N/A,,Clear,200,2013-08-18 08:15:00
1:55 AM,57.2,55.4,94,29.86,10.0,Calm,Calm,-,N/A,,Unknown,0,2013-08-18 08:55:00
2:15 AM,53.6,53.6,100,29.87,10.0,Calm,Calm,-,N/A,,Unknown,0,2013-08-18 09:15:00
2:35 AM,55.4,55.4,100,29.86,6.0,SW,3.5,-,N/A,,Mist,220,2013-08-18 09:35:00
2:55 AM,57.2,57.2,100,29.85,5.0,South,3.5,-,N/A,,Mist,180,2013-08-18 09:55:00
3:15 AM,53.6,53.6,100,29.86,10.0,Calm,Calm,-,N/A,,Clear,0,2013-08-18 10:15:00
3:35 AM,55.4,55.4,100,29.86,10.0,NNE,3.5,-,N/A,,Clear,20,2013-08-18 10:35:00
3:55 AM,55.4,55.4,100,29.86,10.0,Calm,Calm,-,N/A,,Clear,0,2013-08-18 10:55:00
4:15 AM,55.4,55.4,100,29.85,10.0,SW,3.5,-,N/A,,Clear,230,2013-08-18 11:15:00
4:35 AM,53.6,53.6,100,29.86,10.0,North,3.5,-,N/A,,Clear,350,2013-08-18 11:35:00
4:55 AM,51.8,51.8,100,29.87,9.0,NE,3.5,-,N/A,,Clear,40,2013-08-18 11:55:00
5:15 AM,53.6,53.6,100,29.87,9.0,North,4.6,-,N/A,,Clear,350,2013-08-18 12:15:00
5:35 AM,53.6,53.6,100,29.87,10.0,North,4.6,-,N/A,,Clear,360,2013-08-18 12:35:00
5:55 AM,53.6,53.6,100,29.87,10.0,Calm,Calm,-,N/A,,Clear,0,2013-08-18 12:55:00
6:15 AM,53.6,53.6,100,29.87,10.0,Calm,Calm,-,N/A,,Clear,0,2013-08-18 13:15:00
6:35 AM,53.6,53.6,100,29.88,10.0,Calm,Calm,-,N/A,,Clear,0,2013-08-18 13:35:00
6:55 AM,55.4,55.4,100,29.88,9.0,Calm,Calm,-,N/A,,Clear,0,2013-08-18 13:55:00
7:15 AM,53.6,53.6,100,29.89,9.0,Calm,Calm,-,N/A,,Clear,0,2013-08-18 14:15:00
7:35 AM,55.4,55.4,100,29.89,10.0,Calm,Calm,-,N/A,,Clear,0,2013-08-18 14:35:00
7:55 AM,57.2,57.2,100,29.90,10.0,Calm,Calm,-,N/A,,Clear,0,2013-08-18 14:55:00
8:15 AM,59.0,59.0,100,29.90,10.0,Calm,Calm,-,N/A,,Clear,0,2013-08-18 15:15:00
8:35 AM,60.8,60.8,100,29.90,-9999.0,Calm,Calm,-,N/A,,Unknown,0,2013-08-18 15:35:00
8:55 AM,62.6,59.0,88,29.90,-9999.0,Calm,Calm,-,N/A,,Unknown,0,2013-08-18 15:55:00
9:15 AM,62.6,59.0,88,29.90,-9999.0,Calm,Calm,-,N/A,,Unknown,0,2013-08-18 16:15:00
9:35 AM,64.4,59.0,83,29.90,-9999.0,Calm,Calm,-,N/A,,Clear,0,2013-08-18 16:35:00
9:55 AM,66.2,59.0,78,29.89,-9999.0,ESE,3.5,-,N/A,,Clear,120,2013-08-18 16:55:00
10:15 AM,68.0,59.0,73,29.89,-9999.0,SE,4.6,-,N/A,,Clear,130,2013-08-18 17:15:00
10:35 AM,71.6,59.0,64,29.89,-9999.0,Calm,Calm,-,N/A,,Clear,0,2013-08-18 17:35:00
10:55 AM,73.4,59.0,61,29.88,-9999.0,SE,3.5,-,N/A,,Clear,140,2013-08-18 17:55:00
11:15 AM,75.2,60.8,61,29.88,-9999.0,SSE,5.8,-,N/A,,Clear,150,2013-08-18 18:15:00
11:35 AM,73.4,60.8,65,29.88,-9999.0,ESE,5.8,-,N/A,,Clear,120,2013-08-18 18:35:00
11:55 AM,77.0,60.8,57,29.88,-9999.0,SE,6.9,-,N/A,,Clear,130,2013-08-18 18:55:00
12:15 PM,77.0,62.6,61,29.87,-9999.0,ESE,5.8,-,N/A,,Clear,120,2013-08-18 19:15:00
12:35 PM,80.6,60.8,51,29.87,-9999.0,ESE,5.8,-,N/A,,Clear,120,2013-08-18 19:35:00
12:55 PM,82.4,60.8,48,29.86,-9999.0,ESE,3.5,-,N/A,Rain,Light Rain,110,2013-08-18 19:55:00
1:15 PM,84.2,60.8,45,29.85,-9999.0,SE,5.8,-,N/A,Rain,Light Rain,130,2013-08-18 20:15:00
1:35 PM,86.0,60.8,43,29.84,-9999.0,ESE,4.6,-,N/A,Rain,Light Rain,120,2013-08-18 20:35:00
1:55 PM,87.8,60.8,40,29.84,-9999.0,ESE,6.9,-,N/A,Rain,Light Rain,120,2013-08-18 20:55:00
2:15 PM,89.6,60.8,38,29.83,-9999.0,SE,5.8,-,N/A,Rain,Light Rain,140,2013-08-18 21:15:00
2:35 PM,91.4,60.8,36,29.82,-9999.0,SE,5.8,-,N/A,Rain,Light Rain,140,2013-08-18 21:35:00
2:55 PM,91.4,59.0,34,29.82,-9999.0,North,9.2,-,N/A,,Clear,360,2013-08-18 21:55:00
3:15 PM,91.4,59.0,34,29.81,-9999.0,NNE,12.7,-,N/A,,Clear,20,2013-08-18 22:15:00
3:35 PM,93.2,59.0,32,29.80,-9999.0,North,12.7,-,N/A,,Clear,350,2013-08-18 22:35:00
3:55 PM,95.0,57.2,28,29.79,-9999.0,North,15.0,-,N/A,,Clear,360,2013-08-18 22:55:00
4:15 PM,93.2,57.2,30,29.78,-9999.0,NNW,17.3,-,N/A,,Clear,340,2013-08-18 23:15:00
4:35 PM,93.2,57.2,30,29.78,-9999.0,North,16.1,-,N/A,,Clear,350,2013-08-18 23:35:00
4:55 PM,93.2,57.2,30,29.78,-9999.0,North,15.0,-,N/A,,Clear,350,2013-08-18 23:55:00
5:15 PM,91.4,57.2,31,29.78,-9999.0,North,15.0,-,N/A,,Clear,360,2013-08-19 00:15:00
5:35 PM,91.4,55.4,29,29.78,-9999.0,NNW,13.8,17.3,N/A,,Clear,340,2013-08-19 00:35:00
5:55 PM,91.4,55.4,29,29.78,-9999.0,North,11.5,-,N/A,,Clear,350,2013-08-19 00:55:00
6:15 PM,91.4,55.4,29,29.77,-9999.0,NNW,9.2,-,N/A,,Clear,340,2013-08-19 01:15:00
6:35 PM,91.4,53.6,28,29.77,-9999.0,North,12.7,-,N/A,,Clear,350,2013-08-19 01:35:00
6:55 PM,89.6,57.2,33,29.77,-9999.0,NNE,11.5,-,N/A,,Clear,20,2013-08-19 01:55:00
7:15 PM,82.4,57.2,42,29.77,-9999.0,NNE,10.4,-,N/A,,Clear,20,2013-08-19 02:15:00
7:35 PM,78.8,57.2,47,29.77,-9999.0,NNE,6.9,-,N/A,,Clear,20,2013-08-19 02:35:00
7:55 PM,77.0,57.2,50,29.78,-9999.0,NNE,6.9,-,N/A,,Unknown,20,2013-08-19 02:55:00
8:15 PM,73.4,57.2,57,29.78,-9999.0,North,5.8,-,N/A,,Unknown,350,2013-08-19 03:15:00
8:35 PM,73.4,55.4,53,29.78,-9999.0,NNW,5.8,-,N/A,,Unknown,330,2013-08-19 03:35:00
8:55 PM,71.6,55.4,57,29.78,-9999.0,North,6.9,-,N/A,,Unknown,360,2013-08-19 03:55:00
9:15 PM,71.6,55.4,57,29.79,-9999.0,North,6.9,-,N/A,,Unknown,10,2013-08-19 04:15:00
9:35 PM,68.0,57.2,68,29.80,-9999.0,North,6.9,-,N/A,,Unknown,360,2013-08-19 04:35:00
9:55 PM,68.0,57.2,68,29.79,-9999.0,North,5.8,-,N/A,,Unknown,10,2013-08-19 04:55:00
10:15 PM,66.2,57.2,73,29.79,-9999.0,North,6.9,-,N/A,,Unknown,360,2013-08-19 05:15:00
10:35 PM,66.2,57.2,73,29.79,-9999.0,NNW,4.6,-,N/A,,Unknown,340,2013-08-19 05:35:00
10:55 PM,66.2,55.4,68,29.79,-9999.0,Calm,Calm,-,N/A,,Unknown,0,2013-08-19 05:55:00
11:15 PM,64.4,55.4,73,29.80,-9999.0,NNW,5.8,-,N/A,,Unknown,340,2013-08-19 06:15:00
11:35 PM,62.6,55.4,77,29.81,-9999.0,North,4.6,-,N/A,,Unknown,350,2013-08-19 06:35:00
11:55 PM,64.4,57.2,77,29.82,-9999.0,Calm,Calm,-,N/A,,Unknown,0,2013-08-19 06:55:00